www.pogodaiklimat.ru

Погода и климат >> Архив погоды >> Пакистан >> Jacobabad


ПОГОДА в Jacobabad

  • Прогноз погоды в Jacobabad
  • Монитор погоды в Jacobabad
  • Климат города

АРХИВ ПОГОДЫ в Jacobabad

Время (UTC), дата Ветер
(напр.,м/с)
 
Видим.   Явления Облачность Т
(С)
Тd
(С)
f
(%)
Тe
(С)
Тes
(С)
Комфортность P
(гПа)
Po
(гПа)
Тmin
(С)
Tmax
(С)
R
(мм)
R24
(мм)
S
(см)
09 11.08 СВ 1 4000 м мгла ясно +36.5 +26.2 56 +53 +75 опасность
перегрева
995.3 1000.0
12 11.08 СВ 1 4000 м мгла ясно +39.5 +26.6 48 +55 +61 опасность
перегрева
992.5 1003.6 +40.1
15 11.08 штиль 0 4000 м мгла ясно +36.0 +28.7 66 +58 +58 опасность
перегрева
992.1 1000.0
18 11.08 штиль 0 4000 м мгла ясно +35.0 +28.3 68 +56 +56 опасность
перегрева
992.8 986.8
21 11.08 штиль 0 4000 м мгла ясно +33.0 +27.6 73 +52 +52 опасность
перегрева
992.2 992.0
00 12.08 В 5 н/о мгла 3/0
[Ci fib]
+28.5 +23.5 74 +39 +39 очень
душно
992.0 984.7
03 12.08 В 1 4000 м мгла ясно +30.0 +25.8 78 +45 +50 опасность
перегрева
993.0 986.9 +27.0
06 12.08 СВ 1 4000 м мгла ясно +32.0 +25.8 70 +47 +70 опасность
перегрева
993.9 987.7
09 12.08 СВ 1 4000 м мгла ясно +36.0 +26.4 58 +53 +75 опасность
перегрева
991.3 1000.0
12 12.08 СВ 1 4000 м мгла ясно +38.5 +25.4 48 +53 +57 опасность
перегрева
989.6 1004.5 +39.0
15 12.08 штиль 0 4000 м мгла 5/0
[Ci fib]
+36.0 +27.9 63 +56 +56 опасность
перегрева
990.0 1000.0
18 12.08 СВ 1 4000 м мгла ясно +34.5 +27.0 65 +52 +52 опасность
перегрева
991.3 985.2
21 12.08 СВ 1 4000 м мгла ясно +32.0 +26.5 73 +49 +49 опасность
перегрева
990.7 982.4
00 13.08 штиль 0 4000 м мгла ясно +30.5 +25.6 75 +45 +45 опасность
перегрева
991.7 985.4
03 13.08 СВ 1 4000 м мгла 3/0
[Ci fib]
+30.0 +24.3 72 +42 +48 опасность
перегрева
994.3 988.2 +26.5
06 13.08 СВ 1 4000 м мгла 4/0
[Ci fib]
+32.0 +25.8 70 +47 +68 опасность
перегрева
995.0 988.8
09 13.08 СВ 1 4000 м мгла 4/0
[Ci fib]
+35.5 +26.6 60 +52 +73 опасность
перегрева
993.4 1000.0
12 13.08 СВ 1 4000 м мгла 4/0
[Ci fib]
+36.5 +26.2 56 +53 +57 опасность
перегрева
991.4 1003.6 +37.5
15 13.08 штиль 0 4000 м мгла 3/0
[Ci fib]
+35.5 +26.6 60 +52 +52 опасность
перегрева
992.7 1000.0
18 13.08 СВ 1 4000 м мгла ясно +33.5 +26.6 67 +50 +50 опасность
перегрева
995.6 989.5
21 13.08 СВ 1 4000 м мгла ясно +31.0 +25.4 72 +45 +45 опасность
перегрева
995.2 987.8
00 14.08 СВ 1 4000 м мгла 4/0
[Ci fib]
+29.0 +24.8 78 +41 +41 опасность
перегрева
996.5 990.2
03 14.08 СВ 1 4000 м мгла 5/0
[Ci fib]
+29.5 +26.0 81 +44 +49 опасность
перегрева
998.0 991.7 +27.5
06 14.08 СВ 1 4000 м мгла 5/0
[Ci fib]
+32.5 +27.0 73 +51 +71 опасность
перегрева
998.3 992.1
09 14.08 СВ 1 4000 м мгла 5/0
[Ci fib]
+35.0 +26.8 63 +53 +73 опасность
перегрева
995.0 1000.0
12 14.08 СВ 1 4000 м мгла 5/0
[Ci fib]
+35.0 +26.8 63 +53 +57 опасность
перегрева
994.3 1003.0 +36.5
15 14.08 штиль 0 4000 м мгла 3/0
[Ci fib]
+33.5 +27.4 71 +53 +53 опасность
перегрева
994.8 1000.0
18 14.08 штиль 0 4000 м мгла 3/0
[Ci fib]
+32.0 +27.2 76 +50 +50 опасность
перегрева
996.4 990.2
21 14.08 СВ 1 4000 м мгла 3/0
[Ci fib]
+30.0 +25.8 78 +45 +45 опасность
перегрева
996.0 988.8
00 15.08 СВ 1 4000 м мгла 4/0
[Ci fib]
+28.0 +24.4 81 +39 +39 очень
душно
997.2 990.9
03 15.08 СВ 1 4000 м мгла 4/0
[Ci fib]
+29.5 +26.0 81 +44 +49 опасность
перегрева
997.8 991.5 +27.5
06 15.08 СВ 1 4000 м мгла 4/0
[Ci fib]
+33.0 +26.8 70 +51 +72 опасность
перегрева
998.4 992.2
09 15.08 СВ 1 4000 м мгла 4/0
[Ci fib]
+36.0 +26.4 58 +53 +73 опасность
перегрева
996.8 1000.0
12 15.08 СВ 1 4000 м мгла 4/0
[Ci fib]
+36.5 +26.2 56 +53 +57 опасность
перегрева
994.6 999.6 +37.5
15 15.08 штиль 0 4000 м мгла 4/0
[Ci fib]
+34.0 +27.2 68 +53 +53 опасность
перегрева
994.6 995.0
18 15.08 штиль 0 4000 м мгла 4/0
[Ci fib]
+33.0 +27.0 71 +51 +51 опасность
перегрева
996.1 990.0
21 15.08 штиль 0 4000 м мгла 5/0
[Ci fib]
+31.0 +26.9 79 +48 +48 опасность
перегрева
995.2 987.4
00 16.08 штиль 0 4000 м мгла 5/0
[Ci fib]
+28.0 +24.4 81 +39 +39 очень
душно
994.9 988.7
03 16.08 СВ 1 4000 м мгла 4/0
[Ci fib]
+30.0 +25.8 78 +45 +50 опасность
перегрева
1001.6 995.3 +27.5
06 16.08 штиль 0 4000 м мгла 4/0
[Ci fib]
+34.0 +27.2 68 +53 +75 опасность
перегрева
1001.9 995.8
09 16.08 штиль 0 4000 м мгла 4/0
[Ci fib]
+37.0 +27.6 59 +56 +78 опасность
перегрева
1000.0 1000.0
12 16.08 штиль 0 4000 м мгла 4/0
[Ci fib]
+36.0 +27.2 61 +55 +60 опасность
перегрева
998.7 992.6 +39.5
15 16.08 штиль 0 4000 м мгла 8/4 300 м
[St Ac trans]
+34.0 +27.9 71 +55 +55 опасность
перегрева
999.5 1000.0
18 16.08 штиль 0 4000 м мгла 8/4 1200 м
[St Ac trans]
+32.0 +27.2 76 +50 +50 опасность
перегрева
1001.8 995.6
21 16.08 штиль 0 4000 м мгла 8/3 1200 м
[St Ac trans]
+30.0 +25.8 78 +45 +45 опасность
перегрева
1000.1 1000.0
00 17.08 штиль 0 4000 м мгла 8/5 300 м
[St Ac trans]
+28.5 +25.0 81 +41 +41 опасность
перегрева
999.0 992.7
03 17.08 штиль 0 4000 м мгла ясно +29.5 +26.0 81 +44 +50 опасность
перегрева
999.8 993.5 +27.1
06 17.08 штиль 0 4000 м мгла ясно +35.5 +25.3 56 +50 +74 опасность
перегрева
999.8 993.7
09 17.08 штиль 0 4000 м мгла ясно +37.0 +25.2 51 +51 +74 опасность
перегрева
998.3 1000.0
12 17.08 штиль 0 4000 м мгла ясно +38.5 +25.4 48 +53 +58 опасность
перегрева
995.1 1002.5 +39.1
15 17.08 штиль 0 4000 м мгла ясно +35.0 +26.8 63 +53 +53 опасность
перегрева
995.4 1000.0
18 17.08 штиль 0 4000 м мгла 5/0
[Ac trans]
+33.0 +27.6 73 +52 +52 опасность
перегрева
997.3 991.1
21 17.08 штиль 0 4000 м мгла 5/0
[Ac trans]
+31.0 +26.9 79 +48 +48 опасность
перегрева
996.6 997.0
00 18.08 штиль 0 4000 м мгла 5/0
[Ac trans]
+29.0 +25.5 81 +43 +43 опасность
перегрева
996.0 989.7

 

Местоположение метеостанции Jacobabad (Пакистан): широта 28.30 долгота 68.47 высота над уровнем моря 56 м.

В архиве по умолчанию представлена погода в Jacobabad за последнюю неделю. Архивные данные за месяц целиком и за предыдущие месяцы, начиная с января 2011 года, Вы можете получить, выбрав интересующий диапазон дат из раскрывающегося списка и нажав кнопку "Ввод!".


*Определитесь, кто Вы:
робот инопланетянин человек

Внимание! Время в таблицах - всемирное. Для получения местного времени необходимо прибавить поправку, которая в Jacobabad равна 5 ч.

Смотрите также архив погоды в соседних городах и на ближайших метеорологических станциях:

Погода в Rohri (Пакистан) (82 км)
Погода в Sibi (Пакистан) (150 км)
Погода в Pad Idan (Пакистан) (165 км)
Погода в Khuzdar (Пакистан) (188 км)
Погода в Kalat (Пакистан) (202 км)
Погода в Barkhan (Пакистан) (214 км)
Погода в Khanpur (Пакистан) (220 км)
Погода в Nawabshah (Пакистан) (228 км)
Погода в Quetta Airport (Пакистан) (266 км)
Погода в Jaisalmer (Rajasthan, Индия) (287 км)

Пояснения к столбцам:

Ветер - указаны скорость ветра в м/с - средняя за 10 мин, порывы в срок и между сроками (в фигурных скобках) и направление, откуда дует ветер: С - северный, СВ - северо-восточный, В - восточный, ЮВ - юго-восточный, Ю - южный, ЮЗ - юго-западный, З - западный, СЗ - северо-западный.
Видимость - горизонтальная дальность видимости в метрах или километрах. При видимости от 1 до 10 км при отсутствии осадков обычно наблюдается дымка, при ухудшении видимости до 1 км и менее - туман. В сухую погоду видимость может ухудшаться дымом, пылью или мглою.
Явления - указаны атмосферные явления, наблюдавшиеся в срок или в последний час перед сроком; фигурными скобками обозначены явления, наблюдавшиеся между сроками (за 1-3 часа до срока); квадратными скобками обозначены град или гололедные отложения с указанием их диаметра в мм.
Облачность - указаны через наклонную черту общая и нижняя облачность в баллах и высота нижней границы облаков в метрах; квадратными скобками обозначены формы облаков: Ci - перистые, Cs - перисто-слоистые, Cc - перисто-кучевые, Ac - высококучевые, As - высокослоистые, Sc - слоисто-кучевые, Ns - слоисто-дождевые, Cu - кучевые, Cb - кучево-дождевые. Подробнее классификацию облаков см. в Атласе облаков (PDF).
T - Температура воздуха - температура, измеренная на высоте 2 м над землей.
Td - Температура точки росы - температура, при понижении до которой содержащийся в воздухе водяной пар достигнет насыщения.
f - Относительная влажность воздуха - влажноcть воздуха, измеренная на высоте 2 м над землей.
Te - Эффективная температура - температура, которую ощущает одетый по сезону человек в тени. Характеристика душности погоды. При расчете учитывается влияние влажности воздуха и скорости ветра на теплоощущения человека.
Tes - Эффективная температура на солнце - температура, которую ощущает человек, с поправкой на солнечный нагрев. Характеристика знойности погоды. Зависит от высоты солнца над горизонтом, облачности и скорости ветра. Ночью, в пасмурную погоду, а также при ветре 12 м/с и более поправка равна нулю.
P - Атмосферное давление - приведенное к уровню моря атмосферное давление.
Po - Атмосферное давление - измеренное на уровне метеостанции атмосферное давление.
Tmin - Минимальная температура - минимум температуры воздуха на высоте 2 м над землей.
Tmax - Максимальная температура - максимум температуры воздуха на высоте 2 м над землей.
R - Количество осадков - Количество выпавших осадков за период времени, мм. При наведении курсора мыши на число - период времени, за который выпало указанное количество осадков.
R24 - Количество осадков - Количество выпавших осадков за 24 часа, мм.
S - Снежный покров - Высота снежного покрова, см. При наведении курсора мыши на число - состояние снежного покрова и степень покрытия местности в баллах.